Location: Rio Negrinho
(26.2394°S, 49.4999°W)
Time: 07:40:17
(UTC+00:00)

H-2A R/B - Pass Details

Date: 30 September 2020
Orbit: 500 x 542 km, 97.3° (Epoch: 17 June)

Event Time Altitude Azimuth Distance (km) Brightness Sun altitude
Rises 07:21:53 0° 56° (NE) 2,624 6.9 -22.1°
Reaches altitude 10° 07:25:20 10° 91° (E) 1,760 6.5 -21.4°
Maximum altitude 07:26:32 11° 109° (ESE) 1,686 6.4 -21.1°
Drops below altitude 10° 07:27:45 10° 128° (SE) 1,776 6.4 -20.8°
Sets 07:31:16 0° 162° (SSE) 2,688 6.8 -20.1°
